Delta Virtual Airport Information Service

Denver International Airport

ICAO: KDEN Country: United States
Latitude: 39.8616 Longitude: -104.673
Latest Arrival : UAL1779 (KBWI-KDEN) Latest Departure : AAL1160 (1B) (KDEN-KORD)


WX CaptureLIVE
Data provided by noaa.gov | Fetched at 11:16:45

METAR : KDEN 151553Z 02003KT 10SM FEW080 29/13 A3021 RMK AO2 SLP138 T02890128

TAF : KDEN 151502Z 1515/1618 VRB05KT P6SM FEW220 FM151730 03006KT P6SM SKC FM152000 07009KT P6SM FEW120 FM160200 16013KT P6SM FEW120 FEW220 FM160700 20010KT P6SM FEW220 FM161100 24010KT P6SM FEW220


Runway Data for KDEN
Data provided by openaviationdata.com

Runway ID Mag Var Hdg Length Elevation Surface ILS Freq ILS Id ILS Slope
7 11 79° 11980 ft 5324 ft Concrete 111.55 IDZG 3
8 11 79° 11980 ft 5324 ft Concrete 108.9 IFUI 3
16L 11 169° 12007 ft 5324 ft Concrete 111.1 ILTT 3
16R 11 169° 16011 ft 5324 ft Concrete 111.9 IDQQ 3
17L 11 169° 12008 ft 5324 ft Concrete 110.15 IBXP 3
17R 11 169° 12007 ft 5324 ft Concrete 108.5 IACX 3
25 11 259° 11980 ft 5324 ft Concrete 111.55 IERP 3
26 11 259° 11980 ft 5324 ft Concrete 108.9 IJOY 3
34L 11 349° 16011 ft 5324 ft Concrete 111.9 IDXU 3
34R 11 349° 12007 ft 5324 ft Concrete 111.1 IOUF 3
35L 11 349° 12007 ft 5324 ft Concrete 108.5 IAQD 3
35R 11 349° 12008 ft 5324 ft Concrete 110.15 IDPP 3

Denver International Airport, United States
Use only for reference purposes



Not for navigational purposes.